{"data":{"norad_id":63443,"epoch":"2026-09-20T13:39:51.210144Z","epoch_age_seconds":150308,"freshness":"FRESH","line1":"1 63443U 25069L   26263.56934271  .00011973  00000+0  36490-3 0  9993","line2":"2 63443  53.1567 309.3245 0001549 100.7171 259.4006 15.34402247 83347","mean_motion":15.34402247,"eccentricity":0.0001549,"inclination_deg":53.1567,"raan_deg":309.3245,"arg_perigee_deg":100.7171,"mean_anomaly_deg":259.4006,"bstar":0.0003649,"rev_number":8334,"period_min":93.847620649372,"perigee_km":461.63691653902,"apogee_km":463.75620677642,"semimajor_km":6840.8335616577,"source":"CELESTRAK","updated_at":"2026-09-21T09:00:35.003205Z"}}